Time,TemperatureF,DewpointF,PressureIn,WindDirection,WindDirectionDegrees,WindSpeedMPH,WindSpeedGustMPH,Humidity,HourlyPrecipIn,Conditions,Clouds,dailyrainin,SoftwareType,DateUTC
2013-01-23 00:04:00,30.3,27.0,30.27,NE,52,0.0,0.0,87,0.00,,,0.00,weatherlink.com 1.10,2013-01-23 05:04:00,
2013-01-23 00:19:00,30.4,28.0,30.27,NE,52,0.0,0.0,89,0.00,,,0.00,weatherlink.com 1.10,2013-01-23 05:19:00,
2013-01-23 00:34:00,30.2,27.0,30.26,NE,52,0.0,0.0,88,0.00,,,0.00,weatherlink.com 1.10,2013-01-23 05:34:00,
2013-01-23 00:49:00,29.6,27.0,30.26,NE,52,0.0,0.0,89,0.00,,,0.00,weatherlink.com 1.10,2013-01-23 05:49:00,
2013-01-23 01:04:00,29.6,27.0,30.26,NE,52,0.0,0.0,91,0.00,,,0.00,weatherlink.com 1.10,2013-01-23 06:04:00,
2013-01-23 01:19:00,30.0,28.0,30.26,NE,52,0.0,0.0,92,0.00,,,0.00,weatherlink.com 1.10,2013-01-23 06:19:00,
2013-01-23 01:34:00,29.8,28.0,30.26,NE,52,0.0,0.0,92,0.00,,,0.00,weatherlink.com 1.10,2013-01-23 06:34:00,
2013-01-23 01:49:00,30.0,28.0,30.26,NNE,16,0.0,1.0,93,0.00,,,0.00,weatherlink.com 1.10,2013-01-23 06:49:00,
2013-01-23 02:04:00,29.7,28.0,30.27,NNE,16,0.0,1.0,92,0.00,,,0.00,weatherlink.com 1.10,2013-01-23 07:04:00,
2013-01-23 02:19:00,29.3,28.0,30.27,NNE,16,0.0,0.0,93,0.00,,,0.00,weatherlink.com 1.10,2013-01-23 07:19:00,
2013-01-23 02:34:00,29.4,28.0,30.27,NNE,16,0.0,0.0,93,0.00,,,0.00,weatherlink.com 1.10,2013-01-23 07:34:00,
2013-01-23 02:49:00,29.2,28.0,30.27,NNE,16,0.0,0.0,93,0.00,,,0.00,weatherlink.com 1.10,2013-01-23 07:49:00,
2013-01-23 03:04:00,29.7,28.0,30.28,NE,52,0.0,2.0,93,0.00,,,0.00,weatherlink.com 1.10,2013-01-23 08:04:00,
2013-01-23 03:19:00,30.2,27.0,30.28,North,8,0.0,2.0,88,0.00,,,0.00,weatherlink.com 1.10,2013-01-23 08:19:00,
2013-01-23 03:34:00,30.9,26.0,30.28,NNE,13,0.0,2.0,81,0.00,,,0.00,weatherlink.com 1.10,2013-01-23 08:34:00,
2013-01-23 03:49:00,31.0,24.0,30.29,NE,39,4.0,6.0,74,0.00,,,0.00,weatherlink.com 1.10,2013-01-23 08:49:00,
2013-01-23 04:04:00,31.0,22.0,30.29,NE,35,2.0,5.0,70,0.00,,,0.00,weatherlink.com 1.10,2013-01-23 09:04:00,
2013-01-23 04:19:00,30.6,21.0,30.28,NE,54,2.0,7.0,68,0.00,,,0.00,weatherlink.com 1.10,2013-01-23 09:19:00,
2013-01-23 04:34:00,30.2,20.0,30.29,NNE,18,4.0,6.0,65,0.00,,,0.00,weatherlink.com 1.10,2013-01-23 09:34:00,
2013-01-23 04:49:00,29.7,18.0,30.29,NNW,347,0.0,6.0,63,0.00,,,0.00,weatherlink.com 1.10,2013-01-23 09:49:00,
2013-01-23 05:04:00,29.4,17.0,30.30,NE,52,3.0,7.0,59,0.00,,,0.00,weatherlink.com 1.10,2013-01-23 10:04:00,
2013-01-23 05:19:00,29.2,15.0,30.30,ENE,58,6.0,6.0,56,0.00,,,0.00,weatherlink.com 1.10,2013-01-23 10:19:00,
2013-01-23 05:34:00,29.2,13.0,30.31,NNE,26,1.0,11.0,52,0.00,,,0.00,weatherlink.com 1.10,2013-01-23 10:34:00,
2013-01-23 05:49:00,29.0,13.0,30.32,NNE,27,2.0,6.0,51,0.00,,,0.00,weatherlink.com 1.10,2013-01-23 10:49:00,
2013-01-23 06:05:00,28.9,12.0,30.32,NNE,31,5.0,5.0,50,0.00,,,0.00,weatherlink.com 1.10,2013-01-23 11:05:00,
2013-01-23 06:20:00,28.8,12.0,30.33,NE,56,0.0,4.0,49,0.00,,,0.00,weatherlink.com 1.10,2013-01-23 11:20:00,
2013-01-23 06:35:00,28.7,12.0,30.33,NE,51,3.0,7.0,49,0.00,,,0.00,weatherlink.com 1.10,2013-01-23 11:35:00,
2013-01-23 06:50:00,28.6,11.0,30.34,NNE,26,1.0,6.0,48,0.00,,,0.00,weatherlink.com 1.10,2013-01-23 11:50:00,
2013-01-23 07:05:00,28.4,11.0,30.34,NE,52,4.0,4.0,48,0.00,,,0.00,weatherlink.com 1.10,2013-01-23 12:05:00,
2013-01-23 07:20:00,28.2,11.0,30.35,NE,45,2.0,4.0,48,0.00,,,0.00,weatherlink.com 1.10,2013-01-23 12:20:00,
2013-01-23 07:35:00,28.0,11.0,30.35,ENE,58,0.0,2.0,49,0.00,,,0.00,weatherlink.com 1.10,2013-01-23 12:35:00,
2013-01-23 07:50:00,28.2,11.0,30.36,NE,54,2.0,4.0,48,0.00,,,0.00,weatherlink.com 1.10,2013-01-23 12:50:00,
2013-01-23 08:05:00,29.1,11.0,30.36,North,351,2.0,5.0,46,0.00,,,0.00,weatherlink.com 1.10,2013-01-23 13:05:00,
2013-01-23 08:20:00,30.0,10.0,30.36,North,8,4.0,7.0,43,0.00,,,0.00,weatherlink.com 1.10,2013-01-23 13:20:00,
2013-01-23 08:35:00,31.2,10.0,30.37,East,80,2.0,7.0,42,0.00,,,0.00,weatherlink.com 1.10,2013-01-23 13:35:00,
2013-01-23 08:50:00,32.3,9.0,30.37,ENE,72,4.0,8.0,38,0.00,,,0.00,weatherlink.com 1.10,2013-01-23 13:50:00,
2013-01-23 09:05:00,33.1,9.0,30.38,NNE,12,3.0,9.0,36,0.00,,,0.00,weatherlink.com 1.10,2013-01-23 14:05:00,
2013-01-23 09:20:00,34.2,9.0,30.38,East,87,4.0,9.0,35,0.00,,,0.00,weatherlink.com 1.10,2013-01-23 14:20:00,
2013-01-23 09:35:00,35.0,10.0,30.39,East,101,4.0,7.0,35,0.00,,,0.00,weatherlink.com 1.10,2013-01-23 14:35:00,
2013-01-23 09:50:00,36.1,9.0,30.39,NNE,30,7.0,10.0,33,0.00,,,0.00,weatherlink.com 1.10,2013-01-23 14:50:00,
2013-01-23 10:05:00,36.7,10.0,30.39,East,83,1.0,5.0,33,0.00,,,0.00,weatherlink.com 1.10,2013-01-23 15:05:00,
2013-01-23 10:20:00,38.0,10.0,30.40,North,355,4.0,5.0,31,0.00,,,0.00,weatherlink.com 1.10,2013-01-23 15:20:00,
2013-01-23 10:35:00,38.5,10.0,30.39,NNW,336,1.0,5.0,31,0.00,,,0.00,weatherlink.com 1.10,2013-01-23 15:35:00,
2013-01-23 10:50:00,39.4,11.0,30.39,NNE,20,3.0,5.0,31,0.00,,,0.00,weatherlink.com 1.10,2013-01-23 15:50:00,
2013-01-23 11:05:00,40.5,13.0,30.39,North,3,4.0,4.0,32,0.00,,,0.00,weatherlink.com 1.10,2013-01-23 16:05:00,
2013-01-23 11:20:00,40.7,11.0,30.38,SSE,155,2.0,4.0,29,0.00,,,0.00,weatherlink.com 1.10,2013-01-23 16:20:00,
2013-01-23 11:35:00,42.0,10.0,30.37,East,80,4.0,4.0,27,0.00,,,0.00,weatherlink.com 1.10,2013-01-23 16:35:00,
2013-01-23 11:51:00,42.5,11.0,30.36,SSW,202,2.0,3.0,27,0.00,,,0.00,weatherlink.com 1.10,2013-01-23 16:51:00,
2013-01-23 12:06:00,43.0,9.0,30.36,NW,314,0.0,4.0,25,0.00,,,0.00,weatherlink.com 1.10,2013-01-23 17:06:00,
2013-01-23 12:21:00,44.0,9.0,30.35,NNE,26,3.0,5.0,24,0.00,,,0.00,weatherlink.com 1.10,2013-01-23 17:21:00,
2013-01-23 12:36:00,44.1,10.0,30.34,SE,138,1.0,4.0,25,0.00,,,0.00,weatherlink.com 1.10,2013-01-23 17:36:00,
2013-01-23 12:51:00,45.3,8.0,30.34,SE,139,1.0,4.0,22,0.00,,,0.00,weatherlink.com 1.10,2013-01-23 17:51:00,
2013-01-23 13:06:00,45.9,12.0,30.32,West,264,5.0,5.0,25,0.00,,,0.00,weatherlink.com 1.10,2013-01-23 18:06:00,
2013-01-23 13:21:00,45.9,13.0,30.31,WNW,282,2.0,6.0,26,0.00,,,0.00,weatherlink.com 1.10,2013-01-23 18:21:00,
2013-01-23 13:36:00,45.8,13.0,30.30,ESE,113,1.0,5.0,26,0.00,,,0.00,weatherlink.com 1.10,2013-01-23 18:36:00,
2013-01-23 13:51:00,46.3,12.0,30.30,SE,146,3.0,6.0,25,0.00,,,0.00,weatherlink.com 1.10,2013-01-23 18:51:00,
2013-01-23 14:06:00,47.1,14.0,30.29,East,97,1.0,3.0,26,0.00,,,0.00,weatherlink.com 1.10,2013-01-23 19:06:00,
2013-01-23 14:21:00,47.2,19.0,30.28,SW,222,2.0,4.0,32,0.00,,,0.00,weatherlink.com 1.10,2013-01-23 19:21:00,
2013-01-23 14:36:00,46.0,19.0,30.27,East,90,9.0,10.0,34,0.00,,,0.00,weatherlink.com 1.10,2013-01-23 19:36:00,
2013-01-23 14:51:00,45.1,19.0,30.27,SSE,153,2.0,9.0,35,0.00,,,0.00,weatherlink.com 1.10,2013-01-23 19:51:00,
2013-01-23 15:06:00,44.7,20.0,30.26,West,278,1.0,9.0,37,0.00,,,0.00,weatherlink.com 1.10,2013-01-23 20:06:00,
2013-01-23 15:21:00,44.6,20.0,30.26,SE,138,3.0,6.0,37,0.00,,,0.00,weatherlink.com 1.10,2013-01-23 20:21:00,
2013-01-23 15:36:00,44.5,20.0,30.26,East,83,1.0,6.0,38,0.00,,,0.00,weatherlink.com 1.10,2013-01-23 20:36:00,
2013-01-23 15:51:00,44.5,20.0,30.27,SE,143,3.0,6.0,37,0.00,,,0.00,weatherlink.com 1.10,2013-01-23 20:51:00,
2013-01-23 16:06:00,44.4,20.0,30.26,WSW,253,2.0,5.0,38,0.00,,,0.00,weatherlink.com 1.10,2013-01-23 21:06:00,
2013-01-23 16:21:00,44.0,20.0,30.26,SSE,149,4.0,5.0,39,0.00,,,0.00,weatherlink.com 1.10,2013-01-23 21:21:00,
2013-01-23 16:36:00,43.7,21.0,30.27,SW,234,1.0,5.0,41,0.00,,,0.00,weatherlink.com 1.10,2013-01-23 21:36:00,
2013-01-23 16:51:00,43.5,22.0,30.26,SSW,196,1.0,3.0,43,0.00,,,0.00,weatherlink.com 1.10,2013-01-23 21:51:00,
2013-01-23 17:06:00,43.1,22.0,30.26,South,170,0.0,3.0,44,0.00,,,0.00,weatherlink.com 1.10,2013-01-23 22:06:00,
2013-01-23 17:21:00,42.6,23.0,30.26,SW,218,0.0,2.0,47,0.00,,,0.00,weatherlink.com 1.10,2013-01-23 22:21:00,
2013-01-23 17:36:00,41.7,24.0,30.26,South,170,0.0,2.0,50,0.00,,,0.00,weatherlink.com 1.10,2013-01-23 22:36:00,
2013-01-23 17:51:00,40.7,25.0,30.26,South,190,0.0,1.0,53,0.00,,,0.00,weatherlink.com 1.10,2013-01-23 22:51:00,
2013-01-23 18:06:00,39.2,25.0,30.26,South,189,0.0,0.0,57,0.00,,,0.00,weatherlink.com 1.10,2013-01-23 23:06:00,
2013-01-23 18:21:00,38.0,26.0,30.25,South,188,0.0,0.0,62,0.00,,,0.00,weatherlink.com 1.10,2013-01-23 23:21:00,
2013-01-23 18:36:00,36.7,26.0,30.26,South,188,0.0,0.0,65,0.00,,,0.00,weatherlink.com 1.10,2013-01-23 23:36:00,
2013-01-23 18:51:00,36.9,27.0,30.25,South,188,0.0,0.0,67,0.00,,,0.00,weatherlink.com 1.10,2013-01-23 23:51:00,
2013-01-23 19:06:00,36.1,26.0,30.25,South,188,0.0,0.0,68,0.00,,,0.00,weatherlink.com 1.10,2013-01-24 00:06:00,
2013-01-23 19:21:00,35.5,27.0,30.25,South,188,0.0,0.0,71,0.00,,,0.00,weatherlink.com 1.10,2013-01-24 00:21:00,
2013-01-23 19:36:00,35.1,28.0,30.23,South,188,0.0,0.0,74,0.00,,,0.00,weatherlink.com 1.10,2013-01-24 00:36:00,
2013-01-23 19:51:00,34.7,28.0,30.24,South,188,0.0,0.0,76,0.00,,,0.00,weatherlink.com 1.10,2013-01-24 00:51:00,
2013-01-23 20:06:00,34.8,28.0,30.23,South,188,0.0,0.0,76,0.00,,,0.00,weatherlink.com 1.10,2013-01-24 01:06:00,
2013-01-23 20:21:00,34.2,28.0,30.23,South,188,0.0,0.0,78,0.00,,,0.00,weatherlink.com 1.10,2013-01-24 01:21:00,
2013-01-23 20:36:00,33.9,28.0,30.23,South,188,0.0,0.0,80,0.00,,,0.00,weatherlink.com 1.10,2013-01-24 01:36:00,
2013-01-23 20:51:00,34.0,29.0,30.22,South,188,0.0,0.0,81,0.00,,,0.00,weatherlink.com 1.10,2013-01-24 01:51:00,
2013-01-23 21:06:00,33.6,29.0,30.21,South,188,0.0,0.0,82,0.00,,,0.00,weatherlink.com 1.10,2013-01-24 02:06:00,
2013-01-23 21:21:00,34.1,30.0,30.21,South,189,0.0,0.0,84,0.00,,,0.00,weatherlink.com 1.10,2013-01-24 02:21:00,
2013-01-23 21:36:00,33.8,30.0,30.21,South,190,0.0,0.0,84,0.00,,,0.00,weatherlink.com 1.10,2013-01-24 02:36:00,
2013-01-23 21:51:00,33.3,29.0,30.21,South,188,0.0,0.0,84,0.00,,,0.00,weatherlink.com 1.10,2013-01-24 02:51:00,
2013-01-23 22:06:00,33.7,30.0,30.20,South,188,0.0,0.0,85,0.00,,,0.00,weatherlink.com 1.10,2013-01-24 03:06:00,
2013-01-23 22:21:00,33.9,31.0,30.20,South,185,0.0,0.0,87,0.00,,,0.00,weatherlink.com 1.10,2013-01-24 03:21:00,
2013-01-23 22:36:00,34.6,31.0,30.19,South,185,0.0,0.0,88,0.00,,,0.00,weatherlink.com 1.10,2013-01-24 03:36:00,
2013-01-23 22:51:00,36.0,33.0,30.18,South,188,0.0,1.0,88,0.00,,,0.00,weatherlink.com 1.10,2013-01-24 03:51:00,
2013-01-23 23:06:00,38.5,34.0,30.18,SW,234,1.0,1.0,85,0.00,,,0.00,weatherlink.com 1.10,2013-01-24 04:06:00,
2013-01-23 23:21:00,40.4,36.0,30.17,WSW,243,1.0,3.0,83,0.00,,,0.00,weatherlink.com 1.10,2013-01-24 04:21:00,
2013-01-23 23:36:00,40.9,36.0,30.17,WSW,249,0.0,2.0,81,0.00,,,0.00,weatherlink.com 1.10,2013-01-24 04:36:00,
2013-01-23 23:52:00,40.7,36.0,30.16,SW,220,1.0,2.0,82,0.00,,,0.00,weatherlink.com 1.10,2013-01-24 04:52:00,